Flag for Portugal Weather past 2 weeks in Amadora, Portugal

Now
75 °F

Broken clouds.


Feels Like: 77 °F
Forecast: 65 / 80 °F
Wind: 10 mph from Southwest

Location: Lisbon Portela Airport

Current Time: Aug 31, 2015 at 11:53:05 AM

Latest Report: Aug 31, 2015 at 11:30 AM


Visibility: N/A

Pressure: 30.01 "Hg

Humidity: 74%

Dew point: 66 °F

Location of AmadoraLocation

Historic Weather in Amadora — Graph

°F

Amadora temperature yesterday

Maximum temperature yesterday: 82 °F (at 12:00 PM)
Minimum temperature yesterday: 68 °F (at 7:00 AM)
Average temperature yesterday: 75 °F

Past Weeks' High & Low Weather Summary

 TemperatureHumidityPressure
High93 °F (Aug 20, 2:00 PM)100% (Aug 23, 9:00 PM)30.12 "Hg (Aug 23, 9:00 PM)
Low59 °F (Aug 25, 5:00 AM)22% (Aug 29, 2:00 PM)29.89 "Hg (Aug 29, 4:30 PM)
Average72 °F69%30.01 "Hg
* Reported Aug 16 10:00 AM — Aug 31 10:30 AM, Amadora, Weather by CustomWeather, © 2015

Note: Actual official high and low records may vary slightly from our data, if they occured in-between our weather recording intervals... More about our weather records

Advertising

Amadora weather history for previous 24 hours

 ConditionsComfort  
Time TempWeatherWind HumidityBarometerVisibility
10:30 AM
Mon, Aug 31
73 °FBroken clouds.9 mph78%30.01 "HgN/A
10:00 AM72 °FLight rain. Partly sunny.8 mph83%29.98 "HgN/A
9:30 AM72 °FLight rain. Broken clouds.7 mph83%29.98 "HgN/A
9:00 AM72 °FBroken clouds.6 mph83%29.98 "HgN/A
8:30 AM70 °FBroken clouds.8 mph88%29.98 "HgN/A
8:00 AM70 °FPartly cloudy.7 mph88%29.98 "HgN/A
7:30 AM70 °FPartly cloudy.7 mph88%29.98 "HgN/A
7:00 AM70 °FPassing clouds.8 mph83%29.98 "HgN/A
6:30 AM70 °FPassing clouds.7 mph83%29.95 "HgN/A
6:00 AM70 °FPassing clouds.7 mph83%29.95 "HgN/A
5:30 AM70 °FPassing clouds.6 mph88%29.95 "HgN/A
5:00 AM70 °FPassing clouds.7 mph88%29.95 "HgN/A
4:30 AM70 °FPassing clouds.9 mph88%29.98 "HgN/A
4:00 AM70 °FPassing clouds.5 mph88%29.98 "HgN/A
3:30 AM70 °FPassing clouds.7 mph88%29.98 "HgN/A
3:00 AM70 °FPassing clouds.7 mph88%29.98 "HgN/A
2:30 AM72 °FPassing clouds.5 mph83%29.98 "HgN/A
2:00 AM70 °FPartly cloudy.6 mph88%29.98 "HgN/A
1:30 AM70 °FPartly cloudy.6 mph88%29.98 "HgN/A
1:00 AM70 °FPartly cloudy.7 mph88%29.98 "HgN/A
12:30 AM70 °FPassing clouds.6 mph88%29.98 "HgN/A
12:00 AM70 °FPassing clouds.6 mph88%29.98 "HgN/A
11:30 PM
Sun, Aug 30
70 °FPassing clouds.7 mph88%29.95 "HgN/A
11:00 PM70 °FPassing clouds.7 mph83%29.95 "HgN/A
10:30 PM70 °FClear.6 mph83%29.95 "Hg10 mi
10:00 PM70 °FClear.8 mph83%29.95 "Hg10 mi
9:30 PM70 °FClear.9 mph83%29.95 "Hg10 mi
8:30 PM73 °FPassing clouds.9 mph74%29.92 "HgN/A
8:00 PM73 °FSunny.9 mph69%29.92 "Hg10 mi
7:30 PM75 °FSunny.12 mph69%29.92 "Hg10 mi
7:00 PM77 °FSunny.12 mph65%29.92 "Hg10 mi
6:30 PM77 °FSunny.13 mph65%29.92 "Hg10 mi
6:00 PM79 °FSunny.15 mph58%29.89 "Hg10 mi
5:30 PM79 °FSunny.14 mph61%29.89 "Hg10 mi
5:00 PM79 °FSunny.17 mph65%29.89 "Hg10 mi
4:30 PM79 °FPassing clouds.18 mph65%29.89 "HgN/A
4:00 PM79 °FPassing clouds.18 mph65%29.89 "HgN/A
3:30 PM81 °FPassing clouds.18 mph66%29.92 "HgN/A
3:00 PM81 °FPassing clouds.15 mph66%29.92 "HgN/A
2:30 PM81 °FPassing clouds.14 mph66%29.92 "HgN/A
2:00 PM79 °FPartly sunny.15 mph70%29.92 "HgN/A
1:30 PM81 °FScattered clouds.15 mph66%29.92 "HgN/A
1:00 PM79 °FScattered clouds.18 mph70%29.92 "HgN/A
12:30 PM82 °FPassing clouds.17 mph58%29.92 "HgN/A
12:00 PM82 °FPassing clouds.13 mph58%29.92 "HgN/A
11:30 AM81 °FPassing clouds.10 mph62%29.89 "HgN/A
11:00 AM81 °FPassing clouds.10 mph62%29.89 "HgN/A
Weather by CustomWeather, © 2015

See weather overviewHow to use our weather pages